Location: ????????
(55.0097°N, 38.5678°E)
Time: 13:48:35
(UTC+00:00)

Cosmos 921 Rocket - Pass Details

Date: 14 April 2024
Orbit: 567 x 626 km, 75.8° (Epoch: 18 May)

Event Time Altitude Azimuth Distance (km) Brightness Sun altitude
Exits shadow 01:13:07 -1° 183° (S) 2,852 6.1 -10.0°
Rises 01:13:16 0° 183° (S) 2,792 6.1 -10.0°
Reaches altitude 10° 01:15:31 10° 177° (S) 1,906 5.3 -9.7°
Maximum altitude 01:19:32 44° 105° (ESE) 832 4.1 -9.3°
Drops below altitude 10° 01:23:40 10° 34° (NE) 1,956 6.8 -8.7°
Sets 01:26:00 0° 28° (NNE) 2,875 7.6 -8.5°
